Regional Weather Roundup
Issued by NWS

Home | Current Version | Previous Version | Text Only | Print | Product List | Glossary Off
Versions: 1 2 3 4 5 6 7 8 9 10 11 12 13 14 15 16 17 18 19 20 21 22 23 24 25 26 27 28 29 30 31 32 33 34 35 36 37 38 39 40 41 42 43 44 45 46 47 48 49 50

306
ASUS43 KFSD 102002
RWRSD

WEATHER ROUNDUP FOR SOUTH DAKOTA
NATIONAL WEATHER SERVICE SIOUX FALLS SD
200 PM CST WED FEB 10 2016

NOTE: "FAIR" INDICATES FEW OR NO CLOUDS BELOW 12,000 FEET WITH NO
SIGNIFICANT WEATHER AND/OR OBSTRUCTIONS TO VISIBILITY.


SDZ001>005-009-010-012>017-102100-
NORTHWEST AND NORTH CENTRAL SOUTH DAKOTA

CITY           SKY/WX    TMP DP  RH WIND       PRES   REMARKS
BUFFALO          N/A     51  29  42 NW20G28   29.90R
FAITH            N/A     52  28  39 N21       29.90R
MOBRIDGE       CLOUDY    33  24  69 N12       29.92R WCI  24
$$

SDZ012>016-024>037-041>051-057-063-072>074-102100-
SOUTHWEST AND SOUTH CENTRAL SOUTH DAKOTA

CITY           SKY/WX    TMP DP  RH WIND       PRES   REMARKS
RAPID CTY ARPT SUNNY     63  21  20 NW26G38   29.92R
PIERRE         SUNNY     46  30  53 N15       29.88R
CUSTER         SUNNY     56  15  20 N14G31    29.98S
ELLSWORTH AFB  SUNNY     60  24  24 NW32G44   29.90R
PHILIP         SUNNY     57  31  37 NW22      29.89R
PINE RIDGE     CLOUDY    61  26  26 NW17      29.92F
WINNER         FAIR      52  30  43 NW20      29.85R
$$

SDZ004>011-016>023-039-040-102100-
NORTHEAST SOUTH DAKOTA

CITY           SKY/WX    TMP DP  RH WIND       PRES   REMARKS
ABERDEEN       CLOUDY    18  12  77 E12       30.01R WCI   5
WATERTOWN      CLOUDY    13   6  74 E9        29.97S WCI   1
BROOKINGS      CLOUDY    13   9  84 E12       29.96F WCI  -1
SISSETON         N/A     10   5  80 SE12      30.06S WCI  -5
$$

SDZ017-020-022-023-036>040-048>070-102100-
SOUTHEAST SOUTH DAKOTA

CITY           SKY/WX    TMP DP  RH WIND       PRES   REMARKS
SIOUX FALLS    CLOUDY    18  12  77 E14       29.96S WCI   4
HURON          CLOUDY    23  17  78 E12       29.93F WCI  12
MITCHELL       SUNNY     31  22  69 E14       29.93S WCI  21
YANKTON        SUNNY     28  19  69 E9        29.92S WCI  20
$$

ABBREVIATIONS USED IN REMARKS
   TC - TEMPERATURE IN CELSIUS
  WCI - WIND CHILL INDEX
   HX - HEAT INDEX
  VSB - VISIBILITY





USA.gov is the U.S. government's official web portal to all federal, state and local government web resources and services.